STARLINK-1848, 46740

Orbit data source: Space-Track

STARLINK-1848, 46740 is a payload satellite owned by SpaceX/Seattle (US) in LEO that was launched on Sat, 24 Oct 2020 UTC via an FALCON 9 launch vehicle from the Air Force Eastern Test Range (AFETR). Payload-class satellites include a variety of spacecraft equipped with specific instruments for various scientific and technological missions. These include communications satellites like Starlink; space stations such as the ISS; scientific satellites like the Hubble; Earth observation satellites from companies like Planet Labs, Umbra, and HawkEye 360; GPS; miniature CubeSats for education and research; and military/defense satellites.

Loading next visibility...
Identifier
46740, 2020-074B
Orbit
LEO
Country
Flag of USUS
Related business
Manufacturer
SpaceX/Seattle
Mission
Partially operational Commercial Communications
Bus & Motor
STARLINK, Unknown motor
Mass
260 kg wet, ~248 kg dry
Launch date (UTC)
2020-10-24 (5 years ago)
Launch vehicle
FALCON 9
Launch site
Air Force Eastern Test Range (AFETR)
Object type
Payload
Rocket body
Debris
Shape & HBR
Box + 1 Pan, 4.4 m
Radar Cross Section
13.562 m², Large (>1 m²)

Expand to show TLE details & history
Last TLE update: 16 hours ago

TLE from 16 hours ago
0 STARLINK-1848
1 46740U 20074B   25261.25011574  .00136841  00000-0  36231-2 0  9995
2 46740  53.0546  14.7725 0006568 295.1106  66.9855 15.37378267  5790
Epoch: 2025-09-18T06:00Z
TLE epoch observation values (Epoch: 2025-09-18T06:00:09.999Z)
Latitude
1.66055°
Longitude
-71.44122°
Altitude
452.805 km
Speed
7.643 km/s
True Right ascension
01h 04m 03s
True Declination
1° 39' 01"
Sunlit
Object was in full shadow at epoch
Visualization orbit readout
Latitude
Unknown
Longitude
Unknown
Altitude
Unknown
Speed
Unknown
Apparent Right ascension
Unknown
Apparent Declination
Unknown
Sunlit
N/A
Visualization observer readout
Local Sidereal Time
15:15:30
Azimuth
Unknown
Elevation
Unknown
Doppler factor
Unknown
Orbital elements
Apogee altitude
458.627 km
Perigee altitude
449.652 km
Semi-major axis
6,832.277 km
Eccentricity
0.00066
Inclination
53.0546°
RAAN
14.7725°
Arg. of periapsis
295.1106°
True anomaly
67.0548°
Mean anomaly
66.9855°
Eccentric anomaly
67.02015°
Mean motion
3.84322 °/min
Orbital period
93.67 mins
BSTAR
0.0036231
Loading maneuver chart data...
Computing Atmospheric mass density...

Documentation

Showing up to 5 results
|